Weather History for Roatan, Honduras

Change the Weather History Date:

Wednesday, January 22, 2014

  Actual Average Record
Temperature  
Mean Temperature 74 °F -  
Max Temperature 79 °F 82 °F 87 °F (1998)
Min Temperature 68 °F 73 °F 67 °F (2013)
Cooling Degree Days 8    
Growing Degree Days 24 (Base 50)    
Moisture  
Dew Point 67 °F    
Average Humidity 79    
Maximum Humidity 88    
Minimum Humidity 68    
Precipitation  
Precipitation 0.12 in - - ()
Sea Level Pressure  
Sea Level Pressure 30.06 in    
Wind  
Wind Speed 4 mph ()    
Max Wind Speed 12 mph    
Max Gust Speed -    
Visibility 5.0 miles    
Events Rain    
Averages and records for this station are not official NWS values.
T = Trace of Precipitation, MM = Missing Value Source: Averaged Metar Reports

Daily Weather History Graph

Daily Weather History Graph

Search for Another Location

Airport:

Trip Planner

Search our weather history database for the weather conditions in past years. The results will help you decide how hot, cold, wet, or windy it might be!

Date:

Astronomy

Jan. 22, 2014 Rise Set
Actual Time 6:17 AM CST 5:37 PM CST
Civil Twilight 5:55 AM CST 6:00 PM CST
Nautical Twilight 5:28 AM CST 6:26 PM CST
Astronomical Twilight 5:02 AM CST 6:52 PM CST
Moon 11:03 PM CST (1/22) 10:19 AM CST (1/22)
Length of Visible Light 12h 05m
Length of Day
11h 19m
Waning Gibbous, 65% of the Moon is Illuminated
Jan 22
Waning Gibbous
Jan 23
Last Quarter
Jan 30
New
Feb 6
First Quarter
Feb 14
Full

Hourly Weather History & Observations

Time (CST) Temp. Dew Point Humidity Pressure Visibility Wind Dir Wind Speed Gust Speed Precip Events Conditions
6:00 AM 72 °F 67 °F 78% 30.05 in 4 mi North 4.6 mph - -   Overcast
6:00 AM 71.6 °F 66.2 °F 83% 30.04 in 3.7 mi North 4.6 mph - N/A   Overcast
7:00 AM 75.2 °F 66.2 °F 73% 30.04 in 6.2 mi NNE 4.6 mph - N/A   Overcast
8:00 AM 75.2 °F 66.2 °F 73% 30.06 in 6.2 mi Calm Calm - N/A   Mostly Cloudy
9:00 AM 77 °F 69 °F 68% 30.10 in 6 mi WSW 3.5 mph - -   Partly Cloudy
9:00 AM 77.0 °F 68.0 °F 74% 30.09 in 6.2 mi WSW 3.5 mph - N/A   Mostly Cloudy
10:00 AM 77.0 °F 68.0 °F 74% 30.09 in 4.3 mi SSW 8.1 mph - N/A   Mostly Cloudy
11:00 AM 73.4 °F 66.2 °F 78% 30.09 in 3.1 mi NNE 11.5 mph - N/A   Light Drizzle
12:00 PM 75 °F 66 °F 68% 30.09 in 6 mi ENE 5.8 mph - - Rain Light Drizzle
1:00 PM 73.4 °F 66.2 °F 78% 30.06 in 1.9 mi NNE 10.4 mph - N/A Rain Rain
2:00 PM 71.6 °F 66.2 °F 83% 30.04 in 1.9 mi ENE 3.5 mph - N/A Rain Light Rain
3:00 PM 73 °F 67 °F 78% 30.05 in 5 mi NW 4.6 mph - - Rain Light Rain
3:00 PM 73.4 °F 68.0 °F 83% 30.04 in 5.0 mi West 4.6 mph - N/A Rain Light Rain
4:00 PM 73.4 °F 68.0 °F 83% 30.04 in 6.2 mi SSW 5.8 mph - N/A   Overcast
5:00 PM 73.4 °F 68.0 °F 83% 30.04 in 5.0 mi West 4.6 mph - N/A   Overcast
6:00 PM 72 °F 67 °F 81% 30.07 in 6 mi SW 3.5 mph - -   Overcast
6:00 PM 71.6 °F 68.0 °F 88% 30.06 in 6.2 mi SW 3.5 mph - N/A   Overcast
7:00 PM 73.4 °F 68.0 °F 83% 30.06 in 6.2 mi SW 4.6 mph - N/A   Overcast
8:00 PM 71.6 °F 68.0 °F 88% 30.06 in 6.2 mi NNW 2.3 mph - N/A   Mostly Cloudy